Starlink 33553

operational
NORAD ID: 62108 Int'l Des: 2024-220 Owner: SPXS Country: US Constellation: starlink
LEOCIRCULAR

About Starlink 33553

Description loading...

Live Position

Loading 3D Globe...

Upcoming Passes

Altitude History

Altitude vs Time

uPlot chart will show altitude changes over time

Two-Line Element Set

1 62108U 24220W 25303.78170561 .00047854 00000-0 17355-2 0 9996
2 62108 42.9982 219.1779 0003258 286.5901 73.4592 15.27608883 53329
Epoch: Oct 30, 2025 • Age: 25 hours

Current Status

Altitude 481.5 km
Velocity 7.63 km/s
Sub-Earth Point 0.21°N, 124.91°W
Launch Date Nov 25, 2024
Age 0.9 years
Type internet

Technical Details

Classification Payload
Mass 530.00 kg
Dry Mass 500.00 kg
Total Mass 530.00 kg
Length 0.30 m
Diameter 4.10 m
Span 29.00 m
Shape Box + pan
Manufacturer SPXS
Bus Type Starlink V2MO
Phase Status In Orbit
Owner/State SPXS/US

Large Constellations

Loading constellations...